Location: Monteux
(44.0348°N, 4.9972°E)
Time: 16:53:47
(UTC+00:00)

Sich 1 - Pass Details

Date: 30 November 2020
Orbit: 593 x 626 km, 82.5° (Epoch: 17 January)

Event Time Altitude Azimuth Distance (km) Brightness Sun altitude
Rises 16:47:51 0° 350° (N) 2,898 6.4 -8.0°
Reaches altitude 10° 16:50:06 10° 349° (N) 1,983 5.5 -8.4°
Maximum altitude 16:54:29 78° 264° (W) 628 3.2 -9.1°
Drops below altitude 10° 16:58:47 10° 178° (S) 1,946 5.9 -9.8°
Sets 17:00:58 0° 177° (S) 2,839 6.7 -10.2°
